Saint Bonnet de Bellac- Haute Vienne - France
Donnes mto: samedi, 15/09/2012
Date Horaire Temp. E. Hum. E. P.atmo. Pluie Vent Direction Direction Ensoleilleme Solaire P. de rose Temp au vent Rafales
15/09/2012 00:00 14,6 C 72 % 1019,7 hPa 0,0 mm 0,0 km/h (0 Bft) N 360 0 min 0 W/m 9,6 C 14,6 C 0,0 km/h (0 Bft)
15/09/2012 00:10 14,8 C 73 % 1019,7 hPa 0,0 mm 0,0 km/h (0 Bft) N 360 0 min 0 W/m 10,0 C 14,8 C 0,0 km/h (0 Bft)
15/09/2012 00:20 14,8 C 73 % 1019,7 hPa 0,0 mm 0,0 km/h (0 Bft) N 360 0 min 0 W/m 10,0 C 14,8 C 0,0 km/h (0 Bft)
15/09/2012 00:30 14,7 C 73 % 1019,7 hPa 0,0 mm 0,0 km/h (0 Bft) N 360 0 min 0 W/m 9,9 C 14,7 C 0,0 km/h (0 Bft)
15/09/2012 00:40 14,8 C 73 % 1019,7 hPa 0,0 mm 0,0 km/h (0 Bft) N 360 0 min 0 W/m 10,0 C 14,8 C 0,0 km/h (0 Bft)
15/09/2012 00:50 14,7 C 73 % 1019,8 hPa 0,0 mm 0,0 km/h (0 Bft) N 360 0 min 0 W/m 9,9 C 14,7 C 0,0 km/h (0 Bft)
15/09/2012 01:00 14,6 C 73 % 1019,8 hPa 0,0 mm 0,0 km/h (0 Bft) N 360 0 min 0 W/m 9,8 C 14,6 C 0,0 km/h (0 Bft)
15/09/2012 01:10 14,6 C 73 % 1019,8 hPa 0,0 mm 0,0 km/h (0 Bft) N 360 0 min 0 W/m 9,8 C 14,6 C 0,0 km/h (0 Bft)
15/09/2012 01:20 14,6 C 73 % 1019,9 hPa 0,0 mm 0,0 km/h (0 Bft) E-SE 112 0 min 0 W/m 9,8 C 14,6 C 0,0 km/h (0 Bft)
15/09/2012 01:30 14,7 C 73 % 1019,9 hPa 0,0 mm 0,0 km/h (0 Bft) E-SE 112 0 min 0 W/m 9,9 C 14,7 C 0,0 km/h (0 Bft)
15/09/2012 01:40 14,8 C 74 % 1019,8 hPa 0,0 mm 0,0 km/h (0 Bft) E-SE 112 0 min 0 W/m 10,2 C 14,8 C 0,0 km/h (0 Bft)
15/09/2012 01:50 14,6 C 74 % 1019,9 hPa 0,0 mm 0,0 km/h (0 Bft) E-SE 112 0 min 0 W/m 10,0 C 14,6 C 0,0 km/h (0 Bft)
15/09/2012 02:00 14,6 C 74 % 1019,8 hPa 0,0 mm 0,0 km/h (0 Bft) E-SE 112 0 min 0 W/m 10,0 C 14,6 C 0,0 km/h (0 Bft)
15/09/2012 02:10 14,6 C 74 % 1019,8 hPa 0,0 mm 0,0 km/h (0 Bft) E-SE 112 0 min 0 W/m 10,0 C 14,6 C 0,0 km/h (0 Bft)
15/09/2012 02:20 14,5 C 75 % 1019,8 hPa 0,0 mm 0,0 km/h (0 Bft) E-SE 112 0 min 0 W/m 10,1 C 14,5 C 0,0 km/h (0 Bft)
15/09/2012 02:30 14,5 C 75 % 1019,7 hPa 0,0 mm 0,0 km/h (0 Bft) E-SE 112 0 min 0 W/m 10,1 C 14,5 C 0,0 km/h (0 Bft)
15/09/2012 02:40 14,4 C 75 % 1019,7 hPa 0,0 mm 0,0 km/h (0 Bft) E-SE 112 0 min 0 W/m 10,0 C 14,4 C 0,0 km/h (0 Bft)
15/09/2012 02:50 14,4 C 75 % 1019,7 hPa 0,0 mm 0,0 km/h (0 Bft) E-SE 112 0 min 0 W/m 10,0 C 14,4 C 0,0 km/h (0 Bft)
15/09/2012 03:02 14,4 C 76 % 1019,6 hPa 0,0 mm 0,0 km/h (0 Bft) E-SE 112 0 min 0 W/m 10,2 C 14,4 C 0,0 km/h (0 Bft)
15/09/2012 03:10 14,3 C 76 % 1019,6 hPa 0,0 mm 0,0 km/h (0 Bft) E-SE 112 0 min 0 W/m 10,1 C 14,3 C 0,0 km/h (0 Bft)
15/09/2012 03:20 14,3 C 76 % 1019,6 hPa 0,0 mm 0,0 km/h (0 Bft) E-SE 112 0 min 0 W/m 10,1 C 14,3 C 0,0 km/h (0 Bft)
15/09/2012 03:30 14,3 C 76 % 1019,5 hPa 0,0 mm 0,0 km/h (0 Bft) E-SE 112 0 min 0 W/m 10,1 C 14,3 C 0,0 km/h (0 Bft)
15/09/2012 03:40 14,3 C 77 % 1019,3 hPa 0,0 mm 0,0 km/h (0 Bft) E-SE 112 0 min 0 W/m 10,3 C 14,3 C 0,0 km/h (0 Bft)
15/09/2012 03:50 14,2 C 78 % 1019,3 hPa 0,0 mm 0,0 km/h (0 Bft) E-SE 112 0 min 0 W/m 10,4 C 14,2 C 0,0 km/h (0 Bft)
15/09/2012 04:00 14,1 C 78 % 1019,3 hPa 0,0 mm 0,0 km/h (0 Bft) E-SE 112 0 min 0 W/m 10,3 C 14,1 C 0,0 km/h (0 Bft)
15/09/2012 04:10 14,1 C 78 % 1019,2 hPa 0,0 mm 0,0 km/h (0 Bft) E-SE 112 0 min 0 W/m 10,3 C 14,1 C 0,0 km/h (0 Bft)
15/09/2012 04:20 13,9 C 78 % 1019,0 hPa 0,0 mm 0,0 km/h (0 Bft) E-SE 112 0 min 0 W/m 10,1 C 13,9 C 0,0 km/h (0 Bft)
15/09/2012 04:30 13,8 C 79 % 1018,9 hPa 0,0 mm 0,0 km/h (0 Bft) SE 135 0 min 0 W/m 10,2 C 13,8 C 0,0 km/h (0 Bft)
15/09/2012 04:40 13,6 C 79 % 1018,9 hPa 0,0 mm 0,0 km/h (0 Bft) S-SO 202 0 min 0 W/m 10,0 C 13,6 C 0,0 km/h (0 Bft)
15/09/2012 04:50 13,3 C 79 % 1018,9 hPa 0,0 mm 0,0 km/h (0 Bft) NE 45 0 min 0 W/m 9,7 C 13,3 C 0,0 km/h (0 Bft)
15/09/2012 05:00 13,1 C 79 % 1018,9 hPa 0,0 mm 0,0 km/h (0 Bft) NE 45 0 min 0 W/m 9,5 C 13,1 C 0,0 km/h (0 Bft)
15/09/2012 05:10 12,8 C 80 % 1018,8 hPa 0,0 mm 0,0 km/h (0 Bft) NE 45 0 min 0 W/m 9,4 C 12,8 C 0,0 km/h (0 Bft)
15/09/2012 05:20 12,6 C 81 % 1018,7 hPa 0,0 mm 0,0 km/h (0 Bft) NE 45 0 min 0 W/m 9,4 C 12,6 C 0,0 km/h (0 Bft)
15/09/2012 05:30 12,5 C 81 % 1018,7 hPa 0,0 mm 0,0 km/h (0 Bft) SE 135 0 min 0 W/m 9,3 C 12,5 C 0,0 km/h (0 Bft)
15/09/2012 05:40 12,3 C 81 % 1018,7 hPa 0,0 mm 0,0 km/h (0 Bft) S 180 0 min 0 W/m 9,1 C 12,3 C 0,0 km/h (0 Bft)
15/09/2012 05:50 12,1 C 81 % 1018,6 hPa 0,0 mm 0,0 km/h (0 Bft) S 180 0 min 0 W/m 8,9 C 12,1 C 0,0 km/h (0 Bft)
15/09/2012 06:00 11,8 C 82 % 1018,5 hPa 0,0 mm 0,0 km/h (0 Bft) S-SO 202 0 min 0 W/m 8,8 C 11,8 C 0,0 km/h (0 Bft)
15/09/2012 06:10 11,5 C 82 % 1018,5 hPa 0,0 mm 0,0 km/h (0 Bft) S-SO 202 0 min 0 W/m 8,5 C 11,5 C 0,0 km/h (0 Bft)
15/09/2012 06:20 11,3 C 83 % 1018,4 hPa 0,0 mm 0,0 km/h (0 Bft) S-SO 202 0 min 0 W/m 8,5 C 11,3 C 0,0 km/h (0 Bft)
15/09/2012 06:30 10,9 C 83 % 1018,4 hPa 0,0 mm 0,0 km/h (0 Bft) S-SO 202 0 min 0 W/m 8,1 C 10,9 C 0,0 km/h (0 Bft)
15/09/2012 06:40 10,8 C 83 % 1018,3 hPa 0,0 mm 0,0 km/h (0 Bft) S-SO 202 0 min 0 W/m 8,0 C 10,8 C 0,0 km/h (0 Bft)
15/09/2012 06:50 10,6 C 84 % 1018,4 hPa 0,0 mm 0,0 km/h (0 Bft) S-SO 202 0 min 0 W/m 8,0 C 10,6 C 0,0 km/h (0 Bft)
15/09/2012 07:00 10,4 C 84 % 1018,4 hPa 0,0 mm 0,0 km/h (0 Bft) S-SO 202 0 min 0 W/m 7,8 C 10,4 C 0,0 km/h (0 Bft)
15/09/2012 07:10 10,1 C 84 % 1018,4 hPa 0,0 mm 0,0 km/h (0 Bft) S-SO 202 0 min 0 W/m 7,5 C 10,1 C 0,0 km/h (0 Bft)
15/09/2012 07:20 9,9 C 84 % 1018,5 hPa 0,0 mm 0,0 km/h (0 Bft) S 180 0 min 0 W/m 7,3 C 9,9 C 0,0 km/h (0 Bft)
15/09/2012 07:30 9,9 C 84 % 1018,6 hPa 0,0 mm 0,0 km/h (0 Bft) S 180 0 min 0 W/m 7,3 C 9,9 C 0,0 km/h (0 Bft)
15/09/2012 07:40 9,8 C 85 % 1018,8 hPa 0,0 mm 0,0 km/h (0 Bft) S 180 0 min 0 W/m 7,4 C 9,8 C 0,0 km/h (0 Bft)
15/09/2012 07:50 9,8 C 85 % 1018,8 hPa 0,0 mm 0,0 km/h (0 Bft) S 180 0 min 0 W/m 7,4 C 9,8 C 0,0 km/h (0 Bft)
15/09/2012 08:00 9,8 C 86 % 1018,8 hPa 0,0 mm 0,0 km/h (0 Bft) S 180 0 min 0 W/m 7,6 C 9,8 C 0,0 km/h (0 Bft)
15/09/2012 08:10 9,8 C 86 % 1019,0 hPa 0,0 mm 0,0 km/h (0 Bft) E-NE 67 0 min 0 W/m 7,6 C 9,8 C 0,0 km/h (0 Bft)
15/09/2012 08:20 9,9 C 86 % 1019,1 hPa 0,0 mm 0,0 km/h (0 Bft) E-NE 67 0 min 0 W/m 7,7 C 9,9 C 0,0 km/h (0 Bft)
15/09/2012 08:30 9,9 C 87 % 1019,2 hPa 0,0 mm 0,0 km/h (0 Bft) E-NE 67 0 min 0 W/m 7,8 C 9,9 C 0,0 km/h (0 Bft)
15/09/2012 08:40 10,1 C 87 % 1019,2 hPa 0,0 mm 0,0 km/h (0 Bft) NE 45 0 min 0 W/m 8,0 C 10,1 C 0,0 km/h (0 Bft)
15/09/2012 08:50 10,6 C 87 % 1019,2 hPa 0,0 mm 0,0 km/h (0 Bft) E 90 0 min 0 W/m 8,5 C 10,6 C 0,0 km/h (0 Bft)
15/09/2012 09:00 11,1 C 88 % 1019,2 hPa 0,0 mm 0,4 km/h (0 Bft) E-SE 112 0 min 0 W/m 9,2 C 11,1 C 0,4 km/h (0 Bft)
15/09/2012 09:10 11,5 C 88 % 1019,3 hPa 0,0 mm 0,0 km/h (0 Bft) E-SE 112 0 min 0 W/m 9,6 C 11,5 C 0,0 km/h (0 Bft)
15/09/2012 09:20 11,8 C 88 % 1019,5 hPa 0,0 mm 0,0 km/h (0 Bft) E 90 0 min 0 W/m 9,9 C 11,8 C 0,0 km/h (0 Bft)
15/09/2012 09:30 12,2 C 88 % 1019,5 hPa 0,0 mm 0,0 km/h (0 Bft) S-SO 202 0 min 0 W/m 10,3 C 12,2 C 0,0 km/h (0 Bft)
15/09/2012 09:40 12,6 C 88 % 1019,5 hPa 0,0 mm 0,0 km/h (0 Bft) S-SO 202 0 min 0 W/m 10,7 C 12,6 C 0,0 km/h (0 Bft)
15/09/2012 09:50 12,9 C 88 % 1019,6 hPa 0,0 mm 0,0 km/h (0 Bft) S-SO 202 0 min 0 W/m 11,0 C 12,9 C 0,0 km/h (0 Bft)
15/09/2012 10:00 13,3 C 88 % 1019,6 hPa 0,0 mm 0,0 km/h (0 Bft) S-SO 202 0 min 0 W/m 11,4 C 13,3 C 0,0 km/h (0 Bft)
15/09/2012 10:10 13,7 C 87 % 1019,7 hPa 0,0 mm 0,0 km/h (0 Bft) E 90 0 min 0 W/m 11,6 C 13,7 C 0,0 km/h (0 Bft)
15/09/2012 10:20 14,1 C 87 % 1019,8 hPa 0,0 mm 2,2 km/h (1 Bft) N-NE 22 0 min 0 W/m 12,0 C 14,1 C 4,0 km/h (1 Bft)
15/09/2012 10:30 14,6 C 87 % 1019,8 hPa 0,0 mm 0,0 km/h (0 Bft) N 360 0 min 0 W/m 12,5 C 14,6 C 0,0 km/h (0 Bft)
15/09/2012 10:40 15,0 C 86 % 1019,7 hPa 0,0 mm 0,4 km/h (0 Bft) NO 315 0 min 0 W/m 12,7 C 15,0 C 3,6 km/h (1 Bft)
15/09/2012 10:50 15,4 C 85 % 1019,8 hPa 0,0 mm 1,1 km/h (1 Bft) N 360 0 min 0 W/m 12,9 C 15,4 C 3,2 km/h (1 Bft)
15/09/2012 11:00 15,8 C 84 % 1019,9 hPa 0,0 mm 0,0 km/h (0 Bft) NE 45 0 min 0 W/m 13,1 C 15,8 C 0,0 km/h (0 Bft)
15/09/2012 11:10 16,1 C 83 % 1019,8 hPa 0,0 mm 1,8 km/h (1 Bft) N-NE 22 0 min 0 W/m 13,2 C 16,1 C 4,0 km/h (1 Bft)
15/09/2012 11:20 16,6 C 82 % 1019,8 hPa 0,0 mm 1,8 km/h (1 Bft) E-NE 67 0 min 0 W/m 13,5 C 16,6 C 3,6 km/h (1 Bft)
15/09/2012 11:30 16,8 C 80 % 1019,7 hPa 0,0 mm 0,4 km/h (0 Bft) SE 135 0 min 0 W/m 13,3 C 16,8 C 3,2 km/h (1 Bft)
15/09/2012 11:40 17,2 C 79 % 1019,8 hPa 0,0 mm 0,0 km/h (0 Bft) E 90 0 min 0 W/m 13,5 C 17,2 C 0,0 km/h (0 Bft)
15/09/2012 11:50 17,8 C 77 % 1019,6 hPa 0,0 mm 0,0 km/h (0 Bft) E-NE 67 0 min 0 W/m 13,7 C 17,8 C 0,0 km/h (0 Bft)
15/09/2012 12:00 18,8 C 75 % 1019,6 hPa 0,0 mm 2,5 km/h (1 Bft) E-NE 67 0 min 0 W/m 14,3 C 18,8 C 6,8 km/h (2 Bft)
15/09/2012 12:10 18,9 C 72 % 1019,5 hPa 0,0 mm 0,0 km/h (0 Bft) N 360 0 min 0 W/m 13,7 C 18,9 C 0,0 km/h (0 Bft)
15/09/2012 12:20 18,9 C 71 % 1019,5 hPa 0,0 mm 0,0 km/h (0 Bft) NE 45 0 min 0 W/m 13,5 C 18,9 C 0,0 km/h (0 Bft)
15/09/2012 12:30 18,9 C 70 % 1019,4 hPa 0,0 mm 0,0 km/h (0 Bft) E-SE 112 0 min 0 W/m 13,3 C 18,9 C 0,0 km/h (0 Bft)
15/09/2012 12:40 19,1 C 67 % 1019,2 hPa 0,0 mm 1,1 km/h (1 Bft) N-NE 22 0 min 0 W/m 12,8 C 19,1 C 1,1 km/h (1 Bft)
15/09/2012 12:50 19,2 C 66 % 1019,2 hPa 0,0 mm 1,1 km/h (1 Bft) N 360 0 min 0 W/m 12,7 C 19,2 C 1,1 km/h (1 Bft)
15/09/2012 13:00 19,2 C 64 % 1019,2 hPa 0,0 mm 1,4 km/h (1 Bft) N-NE 22 0 min 0 W/m 12,2 C 19,2 C 1,4 km/h (1 Bft)
15/09/2012 13:10 19,1 C 65 % 1019,1 hPa 0,0 mm 0,0 km/h (0 Bft) E-NE 67 0 min 0 W/m 12,4 C 19,1 C 1,4 km/h (1 Bft)
15/09/2012 13:20 19,3 C 64 % 1019,0 hPa 0,0 mm 2,9 km/h (1 Bft) NE 45 0 min 0 W/m 12,3 C 19,3 C 4,0 km/h (1 Bft)
15/09/2012 13:30 19,4 C 63 % 1019,1 hPa 0,0 mm 2,5 km/h (1 Bft) E-SE 112 0 min 0 W/m 12,2 C 19,4 C 7,2 km/h (2 Bft)
15/09/2012 13:40 19,3 C 64 % 1019,1 hPa 0,0 mm 1,8 km/h (1 Bft) NE 45 0 min 0 W/m 12,3 C 19,3 C 4,7 km/h (1 Bft)
15/09/2012 13:50 19,6 C 63 % 1019,1 hPa 0,0 mm 0,0 km/h (0 Bft) N-NO 337 0 min 0 W/m 12,4 C 19,6 C 1,4 km/h (1 Bft)
15/09/2012 14:00 19,7 C 63 % 1019,1 hPa 0,0 mm 2,5 km/h (1 Bft) E-NE 67 0 min 0 W/m 12,5 C 19,7 C 3,6 km/h (1 Bft)
15/09/2012 14:10 19,6 C 63 % 1019,0 hPa 0,0 mm 1,8 km/h (1 Bft) N 360 0 min 0 W/m 12,4 C 19,6 C 1,8 km/h (1 Bft)
15/09/2012 14:20 19,8 C 62 % 1018,8 hPa 0,0 mm 0,7 km/h (0 Bft) N 360 0 min 0 W/m 12,3 C 19,8 C 0,7 km/h (0 Bft)
15/09/2012 14:30 20,2 C 61 % 1018,7 hPa 0,0 mm 4,0 km/h (1 Bft) N-NO 337 0 min 0 W/m 12,4 C 20,2 C 7,9 km/h (2 Bft)
15/09/2012 14:40 20,4 C 60 % 1018,7 hPa 0,0 mm 0,0 km/h (0 Bft) E 90 0 min 0 W/m 12,4 C 20,4 C 0,0 km/h (0 Bft)
15/09/2012 14:50 20,8 C 57 % 1018,7 hPa 0,0 mm 0,4 km/h (0 Bft) S 180 0 min 0 W/m 12,0 C 20,8 C 3,2 km/h (1 Bft)
15/09/2012 15:00 20,9 C 58 % 1018,5 hPa 0,0 mm 3,2 km/h (1 Bft) NO 315 0 min 0 W/m 12,3 C 20,9 C 7,2 km/h (2 Bft)
15/09/2012 15:10 20,8 C 57 % 1018,4 hPa 0,0 mm 3,2 km/h (1 Bft) NE 45 0 min 0 W/m 12,0 C 20,8 C 3,2 km/h (1 Bft)
15/09/2012 15:20 20,5 C 59 % 1018,4 hPa 0,0 mm 0,4 km/h (0 Bft) E-NE 67 0 min 0 W/m 12,2 C 20,5 C 4,0 km/h (1 Bft)
15/09/2012 15:30 20,3 C 60 % 1018,3 hPa 0,0 mm 2,2 km/h (1 Bft) E-NE 67 0 min 0 W/m 12,3 C 20,3 C 4,0 km/h (1 Bft)
15/09/2012 15:40 20,1 C 60 % 1018,3 hPa 0,0 mm 0,0 km/h (0 Bft) E-SE 112 0 min 0 W/m 12,1 C 20,1 C 0,0 km/h (0 Bft)
15/09/2012 15:50 20,1 C 60 % 1018,2 hPa 0,0 mm 1,8 km/h (1 Bft) S-SE 157 0 min 0 W/m 12,1 C 20,1 C 4,3 km/h (1 Bft)
15/09/2012 16:00 20,6 C 58 % 1018,0 hPa 0,0 mm 2,9 km/h (1 Bft) E-SE 112 0 min 0 W/m 12,0 C 20,6 C 5,8 km/h (2 Bft)
15/09/2012 16:10 20,9 C 55 % 1017,9 hPa 0,0 mm 2,9 km/h (1 Bft) N-NE 22 0 min 0 W/m 11,5 C 20,9 C 4,3 km/h (1 Bft)
15/09/2012 16:20 21,4 C 56 % 1017,7 hPa 0,0 mm 0,7 km/h (0 Bft) N 360 0 min 0 W/m 12,3 C 21,4 C 0,7 km/h (0 Bft)
15/09/2012 16:30 21,7 C 55 % 1017,6 hPa 0,0 mm 1,4 km/h (1 Bft) N-NE 22 0 min 0 W/m 12,3 C 21,7 C 4,3 km/h (1 Bft)
15/09/2012 16:40 21,5 C 54 % 1017,5 hPa 0,0 mm 2,9 km/h (1 Bft) N-NE 22 0 min 0 W/m 11,8 C 21,5 C 6,1 km/h (2 Bft)
15/09/2012 16:50 21,4 C 54 % 1017,3 hPa 0,0 mm 3,6 km/h (1 Bft) N 360 0 min 0 W/m 11,7 C 21,4 C 6,1 km/h (2 Bft)
15/09/2012 17:00 21,5 C 52 % 1017,3 hPa 0,0 mm 1,4 km/h (1 Bft) S-SO 202 0 min 0 W/m 11,2 C 21,5 C 4,3 km/h (1 Bft)
15/09/2012 17:10 21,6 C 53 % 1017,2 hPa 0,0 mm 0,7 km/h (0 Bft) NO 315 0 min 0 W/m 11,6 C 21,6 C 4,3 km/h (1 Bft)
15/09/2012 17:20 21,8 C 53 % 1017,2 hPa 0,0 mm 1,8 km/h (1 Bft) NE 45 0 min 0 W/m 11,8 C 21,8 C 3,6 km/h (1 Bft)
15/09/2012 17:30 21,8 C 52 % 1017,1 hPa 0,0 mm 0,0 km/h (0 Bft) S-SE 157 0 min 0 W/m 11,5 C 21,8 C 3,2 km/h (1 Bft)
15/09/2012 17:40 21,9 C 52 % 1017,1 hPa 0,0 mm 2,9 km/h (1 Bft) E-NE 67 0 min 0 W/m 11,6 C 21,9 C 4,3 km/h (1 Bft)
15/09/2012 17:50 21,9 C 52 % 1017,1 hPa 0,0 mm 2,9 km/h (1 Bft) E-NE 67 0 min 0 W/m 11,6 C 21,9 C 4,0 km/h (1 Bft)
15/09/2012 18:00 22,0 C 52 % 1017,0 hPa 0,0 mm 1,8 km/h (1 Bft) NE 45 0 min 0 W/m 11,7 C 22,0 C 3,6 km/h (1 Bft)
15/09/2012 18:10 22,1 C 52 % 1016,9 hPa 0,0 mm 2,5 km/h (1 Bft) NE 45 0 min 0 W/m 11,8 C 22,1 C 4,3 km/h (1 Bft)
15/09/2012 18:20 22,0 C 52 % 1016,9 hPa 0,0 mm 1,4 km/h (1 Bft) E-SE 112 0 min 0 W/m 11,7 C 22,0 C 3,2 km/h (1 Bft)
15/09/2012 18:30 21,8 C 51 % 1016,9 hPa 0,0 mm 0,4 km/h (0 Bft) SE 135 0 min 0 W/m 11,2 C 21,8 C 0,4 km/h (0 Bft)
15/09/2012 18:40 21,9 C 51 % 1016,8 hPa 0,0 mm 0,0 km/h (0 Bft) O-SO 247 0 min 0 W/m 11,3 C 21,9 C 0,0 km/h (0 Bft)
15/09/2012 18:50 22,2 C 51 % 1016,8 hPa 0,0 mm 0,0 km/h (0 Bft) N 360 0 min 0 W/m 11,6 C 22,2 C 0,0 km/h (0 Bft)
15/09/2012 19:00 22,3 C 51 % 1016,8 hPa 0,0 mm 0,0 km/h (0 Bft) N 360 0 min 0 W/m 11,7 C 22,3 C 0,0 km/h (0 Bft)
15/09/2012 19:10 21,9 C 51 % 1016,7 hPa 0,0 mm 0,0 km/h (0 Bft) N-NE 22 0 min 0 W/m 11,3 C 21,9 C 0,0 km/h (0 Bft)
15/09/2012 19:20 21,9 C 51 % 1016,6 hPa 0,0 mm 0,0 km/h (0 Bft) N-NE 22 0 min 0 W/m 11,3 C 21,9 C 0,0 km/h (0 Bft)
15/09/2012 19:30 21,7 C 51 % 1016,7 hPa 0,0 mm 0,0 km/h (0 Bft) NE 45 0 min 0 W/m 11,1 C 21,7 C 0,0 km/h (0 Bft)
15/09/2012 19:40 21,3 C 52 % 1016,5 hPa 0,0 mm 0,0 km/h (0 Bft) E-NE 67 0 min 0 W/m 11,0 C 21,3 C 0,0 km/h (0 Bft)
15/09/2012 19:50 20,5 C 52 % 1016,5 hPa 0,0 mm 0,0 km/h (0 Bft) E-NE 67 0 min 0 W/m 10,3 C 20,5 C 0,0 km/h (0 Bft)
15/09/2012 20:00 19,7 C 54 % 1016,5 hPa 0,0 mm 0,0 km/h (0 Bft) E-NE 67 0 min 0 W/m 10,1 C 19,7 C 0,0 km/h (0 Bft)
15/09/2012 20:10 18,9 C 55 % 1016,6 hPa 0,0 mm 0,0 km/h (0 Bft) E-NE 67 0 min 0 W/m 9,7 C 18,9 C 0,0 km/h (0 Bft)
15/09/2012 20:20 18,2 C 57 % 1016,6 hPa 0,0 mm 0,0 km/h (0 Bft) E-NE 67 0 min 0 W/m 9,5 C 18,2 C 0,0 km/h (0 Bft)
15/09/2012 20:30 17,4 C 58 % 1016,6 hPa 0,0 mm 0,0 km/h (0 Bft) E-NE 67 0 min 0 W/m 9,1 C 17,4 C 0,0 km/h (0 Bft)
15/09/2012 20:40 16,8 C 60 % 1016,6 hPa 0,0 mm 0,0 km/h (0 Bft) E-NE 67 0 min 0 W/m 9,0 C 16,8 C 0,0 km/h (0 Bft)
15/09/2012 20:50 16,1 C 62 % 1016,8 hPa 0,0 mm 0,0 km/h (0 Bft) E-NE 67 0 min 0 W/m 8,8 C 16,1 C 0,0 km/h (0 Bft)
15/09/2012 21:00 15,5 C 63 % 1016,8 hPa 0,0 mm 0,0 km/h (0 Bft) E-NE 67 0 min 0 W/m 8,5 C 15,5 C 0,0 km/h (0 Bft)
15/09/2012 21:10 14,9 C 65 % 1016,9 hPa 0,0 mm 0,0 km/h (0 Bft) E-NE 67 0 min 0 W/m 8,4 C 14,9 C 0,0 km/h (0 Bft)
15/09/2012 21:20 14,4 C 66 % 1016,9 hPa 0,0 mm 0,0 km/h (0 Bft) E-NE 67 0 min 0 W/m 8,1 C 14,4 C 0,0 km/h (0 Bft)
15/09/2012 21:30 14,1 C 68 % 1016,9 hPa 0,0 mm 0,0 km/h (0 Bft) E-NE 67 0 min 0 W/m 8,3 C 14,1 C 0,0 km/h (0 Bft)
15/09/2012 21:40 13,7 C 68 % 1016,8 hPa 0,0 mm 0,0 km/h (0 Bft) E-NE 67 0 min 0 W/m 7,9 C 13,7 C 0,0 km/h (0 Bft)
15/09/2012 21:50 13,3 C 69 % 1016,8 hPa 0,0 mm 0,0 km/h (0 Bft) N-NE 22 0 min 0 W/m 7,7 C 13,3 C 0,0 km/h (0 Bft)
15/09/2012 22:00 13,0 C 70 % 1016,8 hPa 0,0 mm 0,0 km/h (0 Bft) N-NE 22 0 min 0 W/m 7,7 C 13,0 C 0,0 km/h (0 Bft)
15/09/2012 22:10 12,8 C 72 % 1016,7 hPa 0,0 mm 0,0 km/h (0 Bft) NE 45 0 min 0 W/m 7,9 C 12,8 C 0,0 km/h (0 Bft)
15/09/2012 22:20 12,4 C 73 % 1016,6 hPa 0,0 mm 0,0 km/h (0 Bft) NE 45 0 min 0 W/m 7,7 C 12,4 C 0,0 km/h (0 Bft)
15/09/2012 22:30 12,2 C 73 % 1016,8 hPa 0,0 mm 0,0 km/h (0 Bft) NE 45 0 min 0 W/m 7,5 C 12,2 C 0,0 km/h (0 Bft)
15/09/2012 22:40 12,0 C 74 % 1016,7 hPa 0,0 mm 0,0 km/h (0 Bft) NE 45 0 min 0 W/m 7,5 C 12,0 C 0,0 km/h (0 Bft)
15/09/2012 22:50 11,8 C 75 % 1016,7 hPa 0,0 mm 0,0 km/h (0 Bft) NE 45 0 min 0 W/m 7,5 C 11,8 C 0,0 km/h (0 Bft)
15/09/2012 23:00 11,7 C 76 % 1016,8 hPa 0,0 mm 0,0 km/h (0 Bft) NE 45 0 min 0 W/m 7,6 C 11,7 C 0,0 km/h (0 Bft)
15/09/2012 23:10 11,5 C 77 % 1016,8 hPa 0,0 mm 0,0 km/h (0 Bft) NE 45 0 min 0 W/m 7,6 C 11,5 C 0,0 km/h (0 Bft)
15/09/2012 23:20 11,4 C 77 % 1016,9 hPa 0,0 mm 0,0 km/h (0 Bft) E-SE 112 0 min 0 W/m 7,5 C 11,4 C 0,0 km/h (0 Bft)
15/09/2012 23:30 11,6 C 79 % 1016,7 hPa 0,0 mm 0,4 km/h (0 Bft) E-SE 112 0 min 0 W/m 8,1 C 11,6 C 3,2 km/h (1 Bft)
15/09/2012 23:40 11,8 C 80 % 1016,5 hPa 0,0 mm 0,0 km/h (0 Bft) E-SE 112 0 min 0 W/m 8,5 C 11,8 C 1,4 km/h (1 Bft)
15/09/2012 23:50 11,8 C 80 % 1016,5 hPa 0,0 mm 0,0 km/h (0 Bft) E 90 0 min 0 W/m 8,5 C 11,8 C 0,0 km/h (0 Bft)
_ Min-Heure 08:10 19:30 23:50 - 23:50 - - - - 07:30 08:10 23:50
Minimum _ 9,8 C 51 % 1016,5 hPa - 0,0 km/h (0 Bft) - - - - 7,3 C 9,8 C 0,0 km/h (0 Bft)
_ Max-Heure 19:00 10:00 11:00 23:50 14:30 - - 23:50 23:50 12:00 19:00 14:30
Maximum _ 22,3 C 88 % 1019,9 hPa 0,0 mm 4,0 km/h
N-NO (1 Bft)
- - 0 min 0 W/m 14,3 C 22,3 C 7,9 km/h
N-NO (2 Bft)
Moyenne _ 15,9 C 71 % 1018,4 hPa #0,0 mm 0,5 km/h (0 Bft) E-SE - #0 min. 0 W/m 10,3 C 15,9 C 1,1 km/h (1 Bft)
Saint Bonnet de Bellac- Haute Vienne - France